ESSA 8 (TOS-F)

导读 | 星芒AI

ESSA 8(TOS-F)卫星是美国国家海洋和大气管理局(NOAA)于1971年发射的早期地球静止轨道气象卫星之一。该卫星主要用于获取云层图像和气象数据,支持天气预报和环境监测。ESSA 8 是 ESSA 系列中的一颗,标志着美国在静止气象观测领域的早期发展。它搭载了电视红外观测仪(VISSR),能够提供连续的地球图像。尽管服役时间不长,ESSA 8 为后续的 GOES 卫星系列奠定了基础,推动了气象卫星技术的进步。

基本信息
目录编号:
3615
目录名称:
ESSA 8 (TOS-F)
国际标识:
1968-114A
轨道中心:
EARTH
卫星名称:
ESSA 8 (TOS-F)
卫星全名:
--
卫星状态:
在轨 (已飞行20819 天)
发射日期:
1968-12-15 UTC
国别 :
美国 (US)
星等 :
--
轨道信息
数据来源 国际轨道数据
星历时间: 2025-12-15T04:41:21+0800
21小时前
查看轨道信息
半长轴: 7816.613km
偏心率: 0.0031861
轨道倾角: 101.677°
近地点辐角 321.293°
升交点赤经 295.082°
平近点角 38.586°
近地点: 1413.573km
远地点: 1463.383km
周期: 114.627分钟
每日圈数: 12.562465
详细信息
使用方式:
暂无
2D轨道图
3D轨道图
轨道高度分析图
轨道倾角分析图
轨道综合分析图
查看轨道综合分析图